Location: George Washington National Forest Helicopter Landing Site
(38.6463°N, 79.0851°W)
Time: 03:35:03
(UTC-04:00)

A-11 Canister half - All Passes

Search period start: 26 August 2019 00:00
Search period end: 05 September 2019 00:00
Orbit: 1526 x 1682 km, 47.3° (Epoch: 25 August)

Date Brightness Start Highest point End Pass type
(mag) Time Alt. Az. Time Alt. Az. Time Alt. Az.
26 Aug - 09:07:42 10° SSE 09:13:11 17° ESE 09:18:43 10° E daylight
26 Aug - 11:07:09 10° SW 11:16:44 62° SE 11:26:36 10° ENE daylight
26 Aug - 13:12:10 10° W 13:22:02 64° NNW 13:32:09 10° ENE daylight
26 Aug - 15:18:48 10° WNW 15:28:39 53° N 15:38:33 10° E daylight
26 Aug - 17:24:37 10° WNW 17:34:51 83° NNE 17:45:00 10° ESE daylight
26 Aug - 19:30:24 10° WNW 19:39:25 38° SW 19:48:18 10° SSE daylight
27 Aug - 08:46:41 10° SSE 08:51:38 15° ESE 08:56:38 10° E daylight
27 Aug - 10:45:37 10° SW 10:55:06 59° SE 11:04:54 10° ENE daylight
27 Aug - 12:50:29 10° WSW 13:00:20 65° NNW 13:10:27 10° ENE daylight
27 Aug - 14:57:06 10° WNW 15:06:55 53° N 15:16:48 10° E daylight
27 Aug - 17:02:56 10° WNW 17:13:11 81° NNE 17:23:19 10° ESE daylight
27 Aug - 19:08:40 10° WNW 19:17:49 40° SW 19:26:52 10° SSE daylight
28 Aug - 08:25:45 10° SSE 08:30:06 14° ESE 08:34:28 10° E daylight
28 Aug - 10:24:05 10° SSW 10:33:29 57° SE 10:43:13 10° ENE daylight
28 Aug - 12:28:47 10° WSW 12:38:38 67° NNW 12:48:45 10° ENE daylight
28 Aug - 14:35:24 10° WNW 14:45:11 53° N 14:55:04 10° E daylight
28 Aug - 16:41:17 10° WNW 16:51:29 79° NNE 17:01:38 10° ESE daylight
28 Aug - 18:46:56 10° WNW 18:56:13 42° SW 19:05:23 10° SSE daylight
29 Aug - 08:04:58 10° SE 08:08:33 13° ESE 08:12:11 10° E daylight
29 Aug - 10:02:34 10° SSW 10:11:53 54° SE 10:21:29 10° ENE daylight
29 Aug - 12:07:06 10° WSW 12:16:56 69° NNW 12:27:04 10° ENE daylight
29 Aug - 14:13:41 10° WNW 14:23:27 52° N 14:33:19 10° ENE daylight
29 Aug - 16:19:36 10° WNW 16:29:48 77° NNE 16:39:58 10° ESE daylight
29 Aug - 18:25:13 10° WNW 18:34:37 45° SW 18:43:54 10° SSE daylight
30 Aug - 07:44:25 10° SE 07:47:01 11° ESE 07:49:37 10° ESE daylight
30 Aug - 09:41:04 10° SSW 09:50:17 51° SE 09:59:47 10° ENE daylight
30 Aug - 11:45:26 10° WSW 11:55:15 70° NNW 12:05:22 10° ENE daylight
30 Aug - 13:51:58 10° WNW 14:01:42 52° N 14:11:35 10° ENE daylight
30 Aug - 15:57:56 10° WNW 16:08:07 75° NNE 16:18:16 10° ESE daylight
30 Aug - 18:03:29 10° WNW 18:13:00 47° SW 18:22:25 10° SSE daylight
31 Aug - 07:25:01 10° ESE 07:25:29 10° ESE 07:25:57 10° ESE daylight
31 Aug - 09:19:34 10° SSW 09:28:41 49° SE 09:38:05 10° ENE daylight
31 Aug - 11:23:46 10° WSW 11:33:33 72° NNW 11:43:41 10° ENE daylight
31 Aug - 13:30:16 10° WNW 13:39:58 52° N 13:49:51 10° ENE daylight
31 Aug - 15:36:17 10° WNW 15:46:25 73° NNE 15:56:34 10° ESE daylight
31 Aug - 17:41:48 10° WNW 17:51:23 49° SW 18:00:54 10° SSE daylight
31 Aug - 19:52:33 10° WSW 19:54:42 11° WSW 19:56:52 10° SW daylight
01 Sep - 08:58:06 10° SSW 09:07:05 46° SE 09:16:22 10° ENE daylight
01 Sep - 11:02:05 10° WSW 11:11:52 74° NNW 11:22:00 10° ENE daylight
01 Sep - 13:08:33 10° WNW 13:18:14 52° N 13:28:06 10° ENE daylight
01 Sep - 15:14:36 10° WNW 15:24:43 71° NNE 15:34:52 10° ESE daylight
01 Sep - 17:20:05 10° WNW 17:29:46 52° SW 17:39:23 10° SSE daylight
01 Sep - 19:29:49 10° W 19:33:09 12° WSW 19:36:30 10° SW daylight
02 Sep - 08:36:38 10° SSW 08:45:29 44° SE 08:54:38 10° ENE daylight
02 Sep - 10:40:26 10° WSW 10:50:12 76° NNW 11:00:18 10° ENE daylight
02 Sep - 12:46:51 10° WNW 12:56:30 52° N 13:06:23 10° ENE daylight
02 Sep - 14:52:56 10° WNW 15:03:01 69° NNE 15:13:09 10° ESE daylight
02 Sep - 16:58:24 10° WNW 17:08:08 54° SW 17:17:51 10° SSE daylight
02 Sep - 19:07:25 10° W 19:11:36 13° WSW 19:15:47 10° SSW daylight
03 Sep - 08:15:11 10° SSW 08:23:54 41° SE 08:32:54 10° ENE daylight
03 Sep - 10:18:47 10° WSW 10:28:31 78° NNW 10:38:37 10° ENE daylight
03 Sep - 12:25:09 10° W 12:34:47 52° N 12:44:38 10° ENE daylight
03 Sep - 14:31:17 10° WNW 14:41:19 67° NNE 14:51:26 10° ESE daylight
03 Sep - 16:36:43 10° WNW 16:46:31 57° SW 16:56:18 10° SSE daylight
03 Sep - 18:45:12 10° W 18:50:03 15° WSW 18:54:53 10° SSW daylight
04 Sep - 07:53:44 10° SSW 08:02:19 39° SE 08:11:10 10° ENE daylight
04 Sep - 09:57:08 10° WSW 10:06:51 81° NNW 10:16:56 10° ENE daylight
04 Sep - 12:03:27 10° W 12:13:03 53° N 12:22:55 10° ENE daylight
04 Sep - 14:09:36 10° WNW 14:19:36 66° NNE 14:29:43 10° ESE daylight
04 Sep - 16:15:01 10° WNW 16:24:53 60° SW 16:34:44 10° SE daylight
04 Sep - 18:23:06 10° W 18:28:29 16° WSW 18:33:53 10° SSW daylight
